Wind_Speed
33 35 37 38 41 43 45 46 45 46 47 47 46 46 45 46 45 44 45 46 44 44 44 43 42 42 42 41 41 42 42 42 43 43 43 43 43 43 44 44 44 43 43
29 29 31 33 36 39 42 43 43 43 44 45 46 45 45 44 44 43 43 44 43 43 43 43 43 43 42 42 43 43 43 43 44 45 45 45 45 44 45 45 45 45 45
26 28 28 30 32 35 38 40 40 40 42 42 42 44 44 44 44 43 43 44 44 43 43 42 43 43 43 43 44 44 44 45 46 46 47 46 46 46 46 45 46 47 47
22 24 26 27 29 31 33 34 36 38 39 39 40 41 42 44 44 42 41 41 42 42 42 43 43 43 43 43 44 44 45 45 46 46 47 47 48 48 47 46 46 46 47
17 19 21 21 24 27 28 30 32 34 36 36 36 38 39 40 41 41 41 40 41 42 42 42 42 42 43 44 44 44 46 46 46 47 47 47 47 48 48 48 47 47 48
13 14 15 17 20 21 23 26 27 29 30 31 32 34 35 36 38 39 41 41 41 41 41 40 41 43 44 45 45 45 46 46 46 47 47 48 48 48 49 49 49 49 49
10 9 11 13 15 17 19 21 22 23 25 26 27 29 31 33 34 36 38 39 39 38 39 40 40 41 43 44 45 45 45 46 47 46 47 48 48 49 51 51 50 50 50
8 8 8 10 12 13 14 15 18 20 21 23 25 26 27 29 32 34 37 38 39 39 39 41 40 39 41 43 44 44 45 45 47 48 49 50 49 50 51 50 50 50 50
7 7 7 8 9 12 14 15 15 17 19 22 23 25 26 27 28 30 32 34 36 37 37 39 41 40 40 41 42 43 44 46 48 48 48 48 48 49 49 50 51 51 51
6 7 7 7 8 9 11 13 14 14 16 19 22 24 25 25 26 28 30 32 34 35 37 38 40 41 41 41 42 44 45 47 48 47 47 47 48 48 49 50 51 51 51
6 5 5 6 7 8 9 10 11 13 15 18 20 22 24 24 25 28 30 31 34 37 38 39 40 41 41 41 43 44 45 45 45 46 47 48 49 50 50 50 49 48 48
4 5 4 4 4 4 6 8 8 10 13 16 18 19 22 24 25 27 29 30 33 36 37 38 39 40 41 42 42 42 44 46 46 47 48 50 50 50 51 49 48 48 48
4 4 3 2 2 3 5 7 8 9 11 13 16 18 20 22 24 27 28 30 31 33 35 36 38 39 40 41 43 44 45 46 47 48 49 50 50 51 48 47 48 47 47
4 4 4 3 4 5 6 8 9 9 11 12 14 17 20 22 24 25 27 28 30 32 33 34 36 38 40 41 43 45 46 47 47 47 48 48 48 46 45 45 46 45 44
4 4 4 5 6 7 7 7 8 9 11 12 14 15 18 20 22 24 26 27 29 30 31 32 34 36 39 40 42 44 45 44 44 45 46 47 46 46 45 45 45 43 42
4 4 4 5 6 6 7 7 7 7 8 9 12 14 16 18 20 23 26 28 29 29 30 31 33 36 38 39 40 42 42 42 41 41 42 44 45 45 45 45 44 43 43
5 5 6 6 6 6 7 7 7 8 10 12 13 15 17 19 22 24 26 27 28 29 31 33 35 36 37 37 38 39 40 40 40 41 41 40 41 42 43 41 40 40 40
5 6 6 7 6 6 7 8 9 10 11 12 15 16 18 20 22 24 24 25 27 28 30 32 34 35 35 35 36 37 38 38 38 39 39 39 39 40 40 40 39 38 37
7 7 7 7 7 8 9 10 11 12 13 14 16 18 19 21 22 23 23 24 25 27 29 30 32 33 33 34 35 35 35 35 36 36 37 37 38 39 39 39 39 37 36
8 8 8 8 8 9 10 11 12 13 15 16 17 19 21 22 23 23 24 25 26 28 29 30 30 31 32 32 33 34 34 34 34 35 35 36 36 37 37 37 36 36 35
9 9 9 10 11 12 13 13 15 16 17 19 20 21 22 24 24 24 25 26 27 29 30 30 31 32 33 33 33 34 34 34 33 33 34 34 33 34 34 34 34 34 33
12 12 12 13 14 15 16 17 18 19 21 22 23 24 25 26 26 27 27 27 28 30 30 30 31 32 34 34 33 34 35 35 34 33 33 33 31 31 31 31 30 30 30
14 14 14 16 16 17 18 19 20 22 23 24 25 27 27 27 28 29 29 30 31 32 31 31 32 32 34 34 34 33 34 35 35 34 33 32 31 30 30 29 29 29 29
15 16 16 17 18 19 20 21 22 24 25 27 29 29 29 29 30 31 31 32 33 33 33 33 33 34 34 34 34 34 34 34 35 34 33 31 31 30 29 28 28 29 29
18 19 19 20 21 22 23 24 25 26 27 29 30 31 32 31 32 33 33 33 34 34 35 35 35 34 33 33 34 35 34 34 34 33 32 31 31 31 30 29 29 28 27
21 21 21 22 23 24 25 26 27 29 30 31 32 33 34 34 34 35 35 35 36 36 36 36 35 35 34 34 35 35 35 34 33 33 32 31 30 30 30 29 28 28 27
Wind_Direction
234 234 235 235 235 233 231 233 234 235 236 237 238 239 240 238 239 241 241 241 243 246 248 251 253 255 257 258 259 260 262 265 267 268 269 271 273 274 274 275 276 276 276
233 233 236 234 233 233 231 233 235 236 236 237 238 239 238 237 237 238 239 239 242 245 248 252 254 254 257 259 260 261 262 264 267 269 270 271 272 274 274 274 275 276 277
237 237 235 234 234 233 233 233 233 235 237 237 238 238 238 238 237 238 241 241 242 245 248 251 253 255 256 259 261 262 264 266 268 270 272 274 274 274 274 273 274 275 277
235 232 233 235 236 236 235 235 235 235 236 237 238 239 239 238 237 238 240 241 242 245 249 251 254 257 259 261 263 264 266 268 269 272 274 276 276 275 274 274 276 277 278
232 230 231 234 235 233 232 232 233 234 237 238 237 237 239 239 238 238 239 242 244 245 248 251 252 256 259 261 264 265 268 270 271 272 274 276 277 277 277 277 277 278 279
224 224 225 227 227 227 229 232 232 233 236 237 238 238 240 239 238 239 242 243 245 247 248 251 254 257 260 263 265 266 269 270 272 272 274 276 277 278 278 278 279 279 280
213 219 223 224 225 223 225 231 235 234 237 237 239 240 240 240 240 242 245 244 245 249 250 253 257 259 261 263 265 267 269 271 272 273 275 276 277 277 278 279 280 281 281
198 206 214 216 226 228 229 232 232 235 237 237 236 239 242 244 245 246 246 246 246 248 251 253 258 263 265 265 266 267 269 271 272 273 274 276 278 278 279 279 280 281 281
191 192 198 211 224 225 229 233 231 237 239 236 236 240 244 247 249 249 251 252 252 253 255 257 259 263 266 265 266 269 271 273 275 276 276 276 277 278 279 280 281 281 281
183 176 185 202 213 224 232 237 238 241 242 242 244 245 246 249 250 253 255 257 258 259 260 261 262 263 266 267 268 271 273 275 275 277 276 277 277 278 279 280 280 281 280
178 173 187 201 210 224 234 239 244 244 247 250 248 247 249 252 255 258 259 261 262 262 263 264 265 266 268 270 271 273 274 275 277 277 276 276 277 278 279 280 280 280 280
183 175 169 180 197 222 234 241 247 248 251 252 253 254 256 258 260 261 264 265 265 265 266 267 267 269 271 272 274 274 275 275 276 276 275 275 277 278 278 278 277 278 278
189 189 187 189 216 236 245 246 249 255 262 261 259 260 263 264 266 268 269 270 270 272 272 271 270 272 273 273 275 276 277 278 277 275 273 275 276 277 277 277 276 276 276
214 225 234 255 284 278 273 265 261 264 273 276 274 272 272 274 274 275 275 272 274 278 277 274 273 274 275 276 278 279 280 281 280 278 276 277 278 278 277 276 275 275 275
250 250 255 271 288 290 292 289 277 274 279 284 285 283 282 282 281 282 283 280 281 280 278 276 277 279 279 280 280 280 281 284 284 282 280 279 280 279 279 278 276 274 273
246 253 274 288 295 299 299 299 297 294 298 300 296 288 288 291 291 291 290 289 286 282 279 278 280 281 281 282 283 284 284 284 284 283 283 283 282 282 282 281 277 275 273
259 268 278 289 292 296 297 301 307 309 310 309 304 299 298 297 298 298 295 293 291 288 285 282 281 281 282 283 284 285 286 285 284 284 285 285 284 283 283 280 277 275 272
266 271 275 283 287 293 300 305 308 309 312 314 311 309 307 304 304 303 301 299 297 295 292 289 288 286 285 285 288 289 289 288 287 286 287 287 287 286 283 279 276 274 272
263 264 264 270 283 295 304 310 312 310 315 318 317 315 315 313 310 309 308 307 306 303 300 297 294 292 290 289 289 290 290 290 291 291 290 288 287 285 281 278 276 273 270
265 263 264 272 284 293 301 307 309 312 313 316 318 318 317 314 312 312 312 310 309 308 307 305 301 298 296 294 292 292 291 293 293 293 293 291 289 287 281 277 274 273 271
270 272 273 278 285 292 298 304 306 309 311 314 316 317 316 314 312 312 313 312 312 312 311 308 304 301 299 299 297 296 295 295 295 294 293 292 291 287 282 277 274 273 271
271 275 279 283 287 292 297 301 304 306 309 311 312 313 313 313 312 313 313 312 313 314 314 312 308 304 302 300 298 297 296 296 295 293 291 289 289 287 282 277 275 273 273
274 277 280 284 288 292 295 298 302 305 307 308 310 311 311 311 311 312 313 313 313 313 312 312 310 307 306 302 299 298 297 295 294 293 290 289 288 287 284 280 275 273 272
275 280 284 288 292 294 296 299 302 305 307 308 309 310 310 310 310 312 312 312 313 313 312 311 309 307 306 305 302 300 300 297 295 294 292 290 289 287 284 280 275 273 273
275 279 284 288 292 295 296 298 301 305 307 309 311 311 311 309 309 310 311 311 311 312 312 312 311 308 307 306 304 302 303 301 298 296 293 290 288 287 285 281 277 275 274
277 280 285 288 292 295 297 299 301 304 306 308 310 310 310 308 307 308 309 309 310 311 310 310 310 308 306 307 307 305 303 301 299 299 296 292 288 286 284 282 277 274 273
Height
5670 5674 5678 5682 5687 5693 5698 5704 5709 5714 5719 5724 5729 5733 5738 5743 5747 5752 5755 5759 5763 5767 5770 5773 5775 5777 5779 5781 5782 5783 5784 5784 5784 5784 5785 5786 5785 5785 5784 5783 5782 5781 5780
5665 5669 5672 5676 5680 5685 5690 5695 5700 5705 5710 5715 5720 5724 5729 5733 5738 5743 5746 5750 5754 5757 5761 5764 5766 5768 5770 5772 5773 5774 5774 5774 5774 5774 5774 5775 5777 5776 5774 5773 5772 5771 5769
5660 5664 5667 5670 5674 5678 5683 5687 5692 5697 5702 5706 5710 5715 5719 5724 5729 5734 5738 5742 5745 5749 5752 5755 5757 5759 5761 5763 5763 5764 5765 5765 5765 5764 5763 5763 5764 5765 5764 5762 5760 5759 5758
5657 5659 5662 5666 5669 5673 5676 5680 5685 5689 5693 5697 5702 5706 5710 5715 5720 5725 5729 5733 5737 5740 5743 5746 5748 5750 5752 5753 5754 5754 5754 5754 5754 5754 5753 5752 5751 5750 5751 5751 5749 5747 5745
5653 5656 5659 5662 5665 5668 5671 5675 5679 5682 5686 5690 5693 5697 5701 5706 5711 5716 5721 5725 5728 5731 5734 5736 5738 5740 5742 5743 5743 5744 5744 5743 5743 5743 5742 5740 5739 5737 5736 5737 5737 5735 5733
5651 5653 5656 5659 5662 5665 5668 5671 5674 5677 5680 5683 5686 5690 5694 5699 5704 5708 5712 5716 5719 5722 5724 5726 5728 5730 5732 5733 5733 5733 5733 5732 5731 5730 5729 5728 5727 5726 5723 5722 5722 5721 5721
5649 5651 5653 5656 5659 5662 5664 5667 5669 5672 5674 5677 5681 5684 5688 5692 5696 5700 5703 5707 5710 5712 5715 5717 5718 5720 5721 5722 5722 5722 5721 5721 5720 5719 5717 5716 5715 5713 5711 5708 5707 5706 5706
5648 5650 5652 5654 5656 5658 5661 5663 5665 5667 5669 5672 5675 5679 5682 5685 5689 5692 5695 5698 5701 5703 5705 5707 5709 5710 5710 5711 5711 5711 5710 5710 5709 5707 5706 5704 5702 5700 5697 5695 5693 5691 5691
5648 5649 5650 5652 5654 5655 5657 5660 5662 5664 5666 5668 5671 5673 5676 5678 5681 5684 5686 5689 5692 5694 5695 5697 5698 5699 5700 5700 5700 5700 5700 5699 5697 5695 5693 5691 5690 5687 5685 5682 5679 5677 5676
5647 5649 5650 5651 5652 5653 5655 5656 5658 5659 5661 5663 5665 5667 5669 5672 5674 5677 5679 5681 5683 5684 5685 5686 5687 5689 5689 5689 5689 5689 5688 5687 5685 5683 5681 5678 5677 5674 5672 5669 5667 5664 5661
5647 5648 5649 5650 5651 5651 5652 5653 5654 5656 5657 5658 5659 5661 5663 5665 5667 5669 5670 5672 5673 5674 5675 5676 5677 5678 5678 5678 5677 5677 5676 5674 5672 5669 5667 5666 5664 5662 5659 5656 5654 5651 5649
5647 5648 5649 5649 5650 5650 5650 5650 5651 5652 5653 5653 5654 5656 5657 5659 5660 5661 5662 5663 5664 5664 5665 5665 5666 5666 5666 5666 5665 5664 5663 5661 5659 5656 5654 5652 5650 5648 5645 5643 5641 5639 5637
5648 5648 5649 5649 5649 5648 5648 5648 5649 5649 5649 5649 5650 5651 5652 5653 5654 5654 5654 5654 5654 5654 5654 5654 5655 5655 5655 5654 5654 5652 5650 5648 5645 5642 5640 5638 5636 5634 5631 5629 5628 5626 5625
5647 5647 5648 5648 5647 5647 5646 5646 5646 5646 5646 5646 5646 5647 5647 5647 5647 5647 5647 5646 5646 5645 5645 5644 5644 5644 5643 5642 5641 5640 5637 5635 5631 5628 5626 5624 5621 5619 5617 5616 5615 5613 5612
5646 5646 5647 5647 5646 5645 5645 5644 5643 5644 5643 5643 5642 5642 5642 5642 5641 5641 5640 5638 5637 5636 5635 5634 5633 5632 5631 5631 5629 5627 5625 5622 5618 5615 5612 5610 5608 5606 5604 5603 5601 5600 5599
5645 5645 5645 5645 5644 5644 5643 5642 5642 5641 5641 5640 5639 5639 5638 5637 5636 5634 5632 5630 5628 5627 5625 5624 5623 5622 5621 5619 5617 5615 5612 5609 5607 5603 5600 5597 5595 5593 5591 5589 5588 5587 5587
5644 5644 5644 5644 5643 5643 5642 5641 5640 5640 5639 5638 5637 5635 5634 5632 5630 5627 5624 5622 5619 5617 5616 5614 5613 5612 5610 5608 5605 5603 5600 5598 5595 5592 5589 5586 5583 5580 5579 5577 5576 5575 5575
5643 5643 5643 5643 5642 5642 5641 5640 5639 5638 5637 5635 5634 5632 5629 5627 5624 5621 5618 5615 5612 5609 5607 5605 5602 5600 5598 5596 5594 5592 5589 5586 5583 5580 5577 5574 5572 5569 5567 5566 5565 5565 5565
5642 5642 5642 5642 5641 5640 5639 5638 5637 5636 5634 5632 5629 5627 5624 5621 5618 5615 5611 5608 5605 5602 5599 5595 5592 5590 5588 5586 5584 5581 5578 5576 5573 5569 5566 5563 5561 5559 5556 5555 5555 5555 5555
5641 5640 5640 5640 5639 5638 5637 5636 5634 5633 5630 5628 5625 5622 5619 5616 5612 5609 5606 5602 5599 5595 5591 5587 5584 5581 5579 5576 5573 5571 5569 5566 5563 5560 5556 5553 5551 5548 5545 5544 5544 5544 5544
5638 5638 5637 5637 5636 5635 5634 5633 5631 5629 5626 5623 5620 5617 5614 5611 5607 5604 5600 5596 5593 5589 5584 5580 5576 5572 5569 5566 5563 5561 5558 5556 5553 5550 5547 5544 5541 5539 5536 5534 5534 5534 5535
5635 5635 5634 5634 5633 5632 5630 5628 5626 5624 5621 5619 5616 5612 5608 5605 5601 5598 5594 5590 5586 5582 5577 5572 5568 5564 5560 5557 5553 5551 5548 5546 5543 5541 5538 5535 5533 5530 5528 5526 5525 5525 5526
5632 5631 5630 5629 5628 5627 5626 5624 5622 5619 5616 5613 5610 5606 5602 5598 5595 5591 5587 5583 5579 5574 5570 5565 5561 5556 5552 5548 5545 5542 5539 5536 5534 5531 5529 5526 5524 5522 5520 5518 5518 5517 5517
5627 5627 5626 5625 5623 5622 5620 5618 5616 5613 5610 5607 5603 5600 5596 5592 5588 5584 5580 5576 5572 5567 5562 5558 5554 5549 5545 5541 5537 5534 5531 5528 5525 5523 5520 5517 5515 5514 5512 5510 5510 5509 5510
5623 5622 5621 5620 5618 5616 5614 5612 5610 5607 5604 5600 5596 5592 5588 5585 5581 5576 5572 5568 5564 5559 5555 5550 5546 5541 5538 5533 5530 5526 5523 5520 5517 5514 5512 5509 5507 5505 5504 5503 5502 5502 5502
5617 5616 5615 5614 5612 5610 5608 5606 5603 5600 5597 5593 5589 5585 5581 5577 5573 5569 5564 5560 5556 5551 5546 5542 5537 5533 5529 5525 5522 5518 5514 5511 5508 5505 5503 5500 5499 5497 5496 5495 5494 5494 5494